Back to catalog

ExseedSat 1

AliveAmateur RadioSSO
NORAD 43775·PAYLOAD·🇮🇳 India

Launched Dec 3, 2018 from Vandenberg Space Force Base

Loading…

Next Passes (next 24 hours)

TLE

FreshSource: Space-Track

Epoch: Sep 14, 2026, 20:32 UTC

1 43775U 18099T   26257.85589006  .00002986  00000-0  18452-3 0  9994
2 43775  97.4125 299.3195 0006216  33.2348 326.9272 15.10597835425851

Track ExseedSat 1 in real time with AllMySat

Download on the App Store